Location: The Saddle
(36.8333°N, 80.3417°W)
Time: 15:24:51
(UTC-05:00)

deb Explorer IX - Visible Passes

Search period start: 30 January 2023 00:00
Search period end: 09 February 2023 00:00
Orbit: 534 x 1049 km, 38.8° (Epoch: 30 January)

Date Brightness Start Highest point End Pass type
(mag) Time Alt. Az. Time Alt. Az. Time Alt. Az.
30 Jan ? 05:37:21 44° SSW 05:38:09 53° SSE 05:42:05 10° E visible
31 Jan ? 05:06:45 38° ESE 05:06:45 38° ESE 05:09:36 10° E visible
31 Jan ? 06:47:39 10° W 06:51:41 70° N 06:55:47 10° ENE visible
01 Feb ? 04:36:04 17° E 04:36:04 17° E 04:37:07 10° E visible
01 Feb ? 06:16:43 22° W 06:19:13 73° N 06:23:15 10° ENE visible
02 Feb ? 05:45:56 55° WNW 05:46:43 76° N 05:50:44 10° ENE visible
03 Feb ? 05:15:05 53° ENE 05:15:05 53° ENE 05:18:14 10° ENE visible
04 Feb ? 04:44:11 23° ENE 04:44:11 23° ENE 04:45:45 10° ENE visible
04 Feb ? 06:24:50 17° WNW 06:27:51 68° N 06:31:52 10° E visible
05 Feb ? 04:13:15 10° ENE 04:13:15 10° ENE 04:13:15 10° ENE visible
05 Feb ? 05:53:54 38° WNW 05:55:19 67° N 05:59:19 10° E visible
06 Feb ? 05:22:56 65° NNE 05:22:56 65° NNE 05:26:45 10° E visible
07 Feb ? 04:51:58 31° ENE 04:51:58 31° ENE 04:54:13 10° E visible
07 Feb ? 06:32:36 13° WNW 06:36:15 72° SSW 06:40:15 10° ESE visible
08 Feb ? 04:20:59 14° E 04:20:59 14° E 04:21:40 10° E visible
08 Feb ? 06:01:38 29° W 06:03:40 79° SSW 06:07:41 10° ESE visible
